Flag for Norway Weather past 2 weeks in Fevik, Norway

Now
58 °F

Cool.


Feels Like: 55 °F
Forecast: 53 / 63 °F
Wind: 15 mph from South

Location: Torungen Fyr

Current Time: Sep 3, 2015 at 7:03:56 AM

Latest Report: Sep 3, 2015 at 5:00 AM


Visibility: N/A

Pressure: 29.69 "Hg

Humidity: 82%

Dew point: 53 °F

Location of FevikLocation

Historic Weather in Fevik — Graph

°F

Fevik temperature yesterday

Maximum temperature yesterday: 61 °F (at 6:00 AM)
Minimum temperature yesterday: 57 °F (at 1:00 AM)
Average temperature yesterday: 59 °F

Past Weeks' High & Low Weather Summary

 TemperatureHumidityPressure
High67 °F (Aug 23, 8:00 PM)97% (Aug 26, 2:00 PM)30.34 "Hg (Aug 26, 2:00 PM)
Low53 °F (Aug 31, 7:00 AM)59% (Aug 28, 3:00 PM)29.38 "Hg (Sep 2, 8:00 AM)
Average62 °F84%29.95 "Hg
* Reported Aug 19 5:00 AM — Sep 3 5:00 AM, Fevik, Weather by CustomWeather, © 2015

Note: Actual official high and low records may vary slightly from our data, if they occured in-between our weather recording intervals... More about our weather records

Advertising

Fevik weather history for previous 24 hours

 ConditionsComfort  
Time TempWeatherWind HumidityBarometerVisibility
5:00 AM
Thu, Sep 3
58 °FCool.15 mph82%29.69 "HgN/A
4:00 AM59 °FCool.13 mph84%29.69 "HgN/A
3:00 AM59 °FCool.14 mph86%29.68 "HgN/A
2:00 AM58 °FCool.14 mph93%29.67 "HgN/A
1:00 AM58 °FCool.12 mph91%29.66 "HgN/A
12:00 AM58 °FCool.14 mph85%29.66 "HgN/A
10:00 PM
Wed, Sep 2
58 °FCool.10 mph87%29.65 "HgN/A
9:00 PM59 °FCool.10 mph90%29.63 "HgN/A
8:00 PM60 °FCool.10 mph84%29.62 "HgN/A
7:00 PM60 °FCool.9 mph83%29.62 "HgN/A
6:00 PM60 °FCool.12 mph83%29.61 "HgN/A
5:00 PM60 °FCool.12 mph84%29.60 "HgN/A
4:00 PM59 °FCool.13 mph89%29.59 "HgN/A
3:00 PM59 °FCool.12 mph91%29.58 "HgN/A
2:00 PM59 °FCool.13 mph90%29.56 "HgN/A
1:00 PM58 °FCool.8 mph93%29.55 "HgN/A
12:00 PM58 °FCool.14 mph93%29.53 "HgN/A
11:00 AM58 °FCool.17 mph90%29.50 "HgN/A
10:00 AM59 °FCool.18 mph91%29.47 "HgN/A
9:00 AM59 °FCool.20 mph90%29.44 "HgN/A
8:00 AM59 °FCool.20 mph93%29.38 "HgN/A
7:00 AM60 °FCool.8 mph93%29.41 "HgN/A
Weather by CustomWeather, © 2015

See weather overviewHow to use our weather pages